Regional Weather Roundup
Issued by NWS

Home | Current Version | Previous Version | Graphics & Text | Print | Product List | Glossary On
Versions: 1 2 3 4 5 6 7 8 9 10 11 12 13 14 15 16 17 18 19 20 21 22 23 24 25 26 27 28 29 30 31 32 33 34 35 36 37 38 39 40 41 42 43 44 45 46 47 48 49 50
000
ASUS43 KDMX 200401
RWRIA

WEATHER ROUNDUP FOR IOWA
NATIONAL WEATHER SERVICE DES MOINES IA
1000 PM CST THU JAN 19 2017

NOTE: "FAIR" INDICATES FEW OR NO CLOUDS BELOW 12,000 FEET WITH NO
SIGNIFICANT WEATHER AND/OR OBSTRUCTIONS TO VISIBILITY.

* - THESE STATIONS ARE NOT NWS STATIONS...THUS NOT UNDER NWS
QUALITY CONTROL.  THEY ALSO DO NOT REPORT WEATHER SUCH
AS PRECIPITATION OR FOG.

IAZ001>003-012>014-020>022-031>034-043>046-200500-
   NORTHWEST IOWA

CITY           SKY/WX    TMP DP  RH WIND       PRES   REMARKS
CARROLL *      FOG       36  36 100 CALM      29.65F VSB 1/4
CHEROKEE *     CLOUDY    36  36 100 S3        29.64F FOG
DENISON *      CLOUDY    37  37 100 SE6       29.63F FOG     WCI  33
LE MARS *      CLOUDY    37  37 100 SE7G13    29.63F FOG     WCI  32
ORANGE CITY *  FOG       36  36 100 SE6       29.62F VSB 1   WCI  31
SHELDON *      MIX PCPN  36  36 100 SE9       29.61F VSB 3/4 WCI  29
SIOUX CITY     FOG       39  38  96 SE9       29.62F VSB 3/4 WCI  33
SPENCER        FOG       35  35 100 S6        29.64F VSB 1/2 WCI  30
STORM LAKE *   FOG       34  34 100 SE8       29.64F VSB<1/4 WCI  27
$$

IAZ055>058-069>071-079>083-090>094-200500-
   SOUTHWEST IOWA

CITY           SKY/WX    TMP DP  RH WIND       PRES   REMARKS
ATLANTIC *     CLOUDY    37  37 100 CALM      29.65F FOG
AUDUBON *      CLOUDY    37  36  93 CALM      29.66F FOG
CLARINDA *     CLOUDY    41  41 100 CALM      29.67S FOG
COUNCIL BLFS * FOG       39  39 100 E5        29.64F VSB 1/4
CRESTON *      FOG       37  37 100 E3        29.66F VSB 1/4
HARLAN  *      FOG       37  37 100 CALM      29.68F VSB 1/4
LAMONI         FOG       40  40 100 N3        29.65S VSB 1/4
RED OAK *      CLOUDY    39  39 100 CALM      29.65F FOG
SHENANDOAH *   FOG       39  39 100 NE5       29.66S VSB 1/4
$$

IAZ047>049-059>061-072>074-084-200500-
   CENTRAL IOWA

CITY           SKY/WX    TMP DP  RH WIND       PRES   REMARKS
AMES           FOG       36  36 100 CALM      29.67F VSB 1/4
ANKENY *       FOG       36  36 100 CALM      29.68F VSB 1/4
BOONE *        FOG       36  36 100 E6        29.65F VSB<1/4 WCI  31
CHARITON *     FOG       37  37 100 E3        29.66S VSB<1/4
DES MOINES     DRZL/FOG  38  37  97 E3        29.67S VSB 1/4
GRINNELL*      FOG       36  36  99 E5        29.67F VSB 1/2 WCI  32
KNOXVILLE *    FOG       37  37 100 E3        29.65F VSB 1/4
MARSHALLTOWN   FOG       36  36 100 CALM      29.66F VSB 1/4
NEWTON *       FOG       37  36  93 SE6       29.66F VSB 1/4 WCI  33
PELLA *        FOG       37  36  98 SE3       29.68F VSB 1/2
PERRY *        FOG       36  35  98 CALM      29.66F VSB 1/4
$$

IAZ004>006-015-016-023>025-035-036-200500-
   NORTH CENTRAL IOWA

CITY           SKY/WX    TMP DP  RH WIND       PRES   REMARKS
ALGONA *       FOG       36  36 100 S8        29.65F VSB 1/2 WCI  29
CLARION *      FOG       34  34 100 SE7       29.66F VSB 3/4 WCI  28
ESTHERVILLE    FOG       33  33 100 S7        29.65S VSB 1/4 WCI  27
FORT DODGE *   CLOUDY    36  34  93 CALM      29.66F
MASON CITY     LGT RAIN  34  33  96 SE7       29.68F FOG     WCI  28
FOREST CITY *  LGT RAIN  34  34 100 SE3       29.66F VSB 1/2
WEBSTER CITY * FOG       34  34 100 SE5       29.64F VSB 1/4 WCI  30
IOWA FALLS *   FOG       35  34  96 E3        29.69F VSB 1/4
$$

IAZ007>011-017>019-026>030-037>042-050>054-066-200500-
   NORTHEAST IOWA

CITY           SKY/WX    TMP DP  RH WIND       PRES   REMARKS
CEDAR RAPIDS   CLOUDY    36  36 100 E8        29.67F FOG     WCI  30
CHARLES CITY * MIX PCPN  36  36 100 SE8       29.69F VSB 1/2 WCI  29
CLINTON *      CLOUDY    37  36  96 E13       29.71F FOG     WCI  29
DECORAH *      CLOUDY    36  36 100 SE7       29.69F FOG     WCI  30
DUBUQUE        CLOUDY    36  35  96 E9        29.69F FOG     WCI  29
MONTICELLO *   CLOUDY    37  37 100 E9        29.69S FOG     WCI  31
OELWEIN *      MIX PCPN  36  36 100 E10       29.69F VSB 3/4 WCI  28
WATERLOO       FOG       36  35  96 E3        29.68F VSB 1/2
$$

IAZ064-065-067-068-078-200500-
   EAST CENTRAL IOWA

CITY           SKY/WX    TMP DP  RH WIND       PRES   REMARKS
DAVENPORT      CLOUDY    37  36  96 E12       29.70F FOG     WCI  29
IOWA CITY      CLOUDY    38  37  97 E5        29.69F FOG     WCI  34
MUSCATINE *    CLOUDY    39  37  93 E5        29.69F FOG
QUAD CITIES    CLOUDY    37  36  96 E9        29.69F FOG     WCI  30
$$

IAZ062-063-075>077-085>089-095>099-200500-
   SOUTHEAST IOWA

CITY           SKY/WX    TMP DP  RH WIND       PRES   REMARKS
BURLINGTON     FOG       40  40 100 E6        29.66F VSB 1/4
FAIRFIELD *    FOG       39  37  93 E6        29.66F VSB<1/4 WCI  35
FORT MADISON * FOG       39  39 100 E3        29.66F VSB 1/4
KEOKUK *       FOG       41  41 100 E6        29.64F VSB<1/4
OSKALOOSA *    FOG       37  36  99 E5        29.67S VSB 1/2 WCI  33
OTTUMWA        FOG       38  38 100 E3        29.66F VSB 1/4
WASHINGTON *   FOG       37  37 100 E7        29.68F VSB 1/4 WCI  32
$$

ABBREVIATIONS USED IN REMARKS
   TC - TEMPERATURES IN CELSIUS
  WCI - WIND CHILL INDEX
   HX - HEAT INDEX
  VSB - VISIBILITY
$$





USA.gov is the U.S. government's official web portal to all federal, state and local government web resources and services.